GFSSE_250_rhum_126.txt.gz
RH
12 11 11 10 9 9 9 8 8 7 7 7 6 5 4 4 3 4 4 4 4 4 8 5 6 5 12 10 8 18 24 18 18 28 24 40 63 57 55 59 62 55 58
14 13 13 12 11 10 9 8 8 8 8 8 7 7 7 6 5 4 4 4 4 6 9 27 16 8 8 13 14 15 16 18 21 23 29 31 40 51 47 59 57 46 39
17 15 15 14 14 13 12 11 10 9 8 8 7 7 7 8 7 6 7 12 14 20 35 67 40 30 25 20 18 17 17 23 25 33 32 37 33 40 45 46 36 32 34
21 22 19 17 16 15 16 14 12 10 10 9 9 8 8 8 8 13 11 11 35 90 88 92 100 82 61 47 33 19 14 12 15 19 23 23 20 22 24 25 25 24 23
29 30 26 24 21 18 18 17 15 13 13 12 11 10 9 8 8 16 22 24 61 92 91 81 99 94 100 78 54 54 42 27 30 27 31 28 26 20 20 21 23 24 24
32 32 30 26 23 19 20 19 19 16 15 15 13 12 12 10 14 11 34 69 41 61 73 100 94 99 99 100 100 99 73 60 52 54 44 50 51 40 28 23 21 27 30
38 38 35 33 37 25 23 26 23 22 20 16 13 12 12 15 11 11 24 79 87 100 100 100 100 100 91 99 99 99 89 91 84 85 66 60 49 44 38 30 28 33 51
40 45 45 46 48 37 50 49 40 28 27 24 18 12 12 15 17 18 17 98 100 100 100 100 92 100 93 78 79 64 68 67 84 97 83 97 82 71 55 41 33 33 39
46 59 66 71 60 85 81 80 56 46 30 32 25 15 13 18 24 33 26 85 100 100 100 100 94 100 100 88 60 45 79 83 85 80 74 67 60 73 70 58 40 50 54
50 58 63 60 98 100 83 100 78 57 37 33 28 16 16 16 16 23 33 70 100 100 100 100 100 100 100 100 60 49 85 84 69 63 62 48 45 61 68 71 51 65 82
55 58 59 64 86 74 100 100 95 67 40 32 35 20 18 17 18 16 25 41 100 100 100 100 100 100 100 100 61 57 45 63 68 73 58 55 56 82 84 58 68 85 75
59 61 53 53 53 98 100 100 85 90 67 34 40 21 20 18 18 17 22 23 47 84 100 100 100 100 100 100 70 82 64 59 61 72 59 55 90 98 68 87 81 46 30
100 100 84 52 60 60 100 97 95 100 70 42 40 27 24 18 21 20 29 33 36 40 100 100 100 100 100 100 87 77 78 73 88 53 35 65 92 67 81 57 24 24 32
88 76 58 66 77 44 100 100 100 91 52 54 47 35 31 22 22 23 49 82 65 47 59 100 100 100 100 100 72 100 96 92 64 40 54 63 67 70 36 29 37 45 43
40 39 66 90 93 71 100 100 91 73 62 69 51 35 40 23 23 21 46 95 100 86 81 65 69 98 100 100 100 75 83 70 45 48 56 51 36 47 67 59 55 56 85
64 84 48 94 100 100 100 100 90 60 77 64 50 39 40 24 24 23 44 78 84 100 97 94 93 99 100 100 72 80 98 64 66 51 61 84 71 54 55 55 46 83 100
100 80 45 91 100 100 100 86 76 98 100 77 57 43 37 25 24 25 37 62 58 100 97 78 100 100 96 98 98 100 93 70 87 81 78 83 80 71 94 85 99 100 100
100 100 100 100 100 100 86 86 100 100 100 96 49 44 39 26 24 25 37 39 32 100 100 99 96 100 100 100 99 100 82 73 82 80 77 78 98 71 85 93 100 93 93
44 38 64 55 34 76 92 100 100 100 100 94 71 50 40 27 24 24 40 36 44 99 100 100 92 100 100 100 100 100 82 79 87 83 62 94 100 88 85 88 100 100 100
50 49 42 50 52 97 88 100 97 84 100 88 81 63 40 27 25 25 40 34 45 58 100 89 90 100 100 100 100 100 84 63 86 84 72 62 73 93 83 100 100 100 100
76 70 63 50 45 40 47 52 57 99 100 100 70 45 40 26 27 28 42 33 49 36 96 92 96 100 100 100 100 100 91 74 91 77 85 98 100 100 100 100 100 91 78
86 79 79 59 51 46 52 57 98 100 100 91 65 43 34 28 26 28 42 38 31 42 82 99 94 99 100 100 100 94 100 97 71 85 89 100 100 100 100 100 100 100 100
92 84 94 79 68 54 53 62 71 100 98 100 74 51 31 29 28 36 41 58 35 29 100 100 86 96 100 100 97 100 99 96 52 58 68 92 100 93 83 88 85 99 90
100 100 100 99 88 63 71 88 83 77 100 99 68 58 33 29 25 38 44 75 28 47 100 100 76 100 100 100 89 100 76 79 68 55 64 62 60 74 62 72 64 68 54
100 100 99 99 96 82 100 100 95 100 74 98 75 57 31 30 25 46 42 45 34 46 83 100 81 89 100 100 100 100 60 49 57 50 53 50 52 56 55 48 52 46 48
100 100 98 100 100 100 100 99 100 98 75 98 63 48 38 31 25 48 58 46 56 91 87 100 90 94 100 100 99 97 54 48 44 49 43 66 61 67 49 53 53 47 51

GFSSE_250_rhum_132.txt.gz
RH
22 20 20 19 20 17 15 15 14 13 12 9 8 8 7 7 6 6 6 6 5 5 6 8 9 29 17 11 7 8 10 10 18 24 37 41 55 70 59 42 54 69 98
25 24 24 24 22 20 18 18 17 15 15 13 10 9 9 8 7 7 7 6 6 6 10 16 25 32 36 24 30 32 36 40 34 29 37 36 30 38 67 72 78 86 90
28 28 28 24 23 23 21 19 20 20 21 21 19 17 14 12 10 9 8 8 8 7 7 7 10 45 87 76 58 88 82 88 80 54 49 42 42 57 60 64 88 97 100
31 32 31 29 28 28 28 26 24 25 29 30 29 24 20 16 14 12 11 9 9 8 8 8 10 31 92 98 45 84 100 83 80 66 52 58 54 35 43 44 36 48 76
35 37 36 38 32 34 34 32 29 27 28 57 46 38 24 20 17 14 12 12 12 10 10 9 85 42 49 65 99 83 68 95 99 79 64 54 56 64 71 60 43 47 59
39 41 49 48 42 42 45 51 47 37 31 67 64 36 45 29 24 17 14 12 14 11 12 11 86 100 64 55 100 97 84 78 97 100 100 77 72 83 84 94 83 72 60
54 54 52 54 61 55 55 64 56 44 36 60 56 45 65 44 34 25 17 15 14 13 13 16 70 100 100 79 94 73 76 78 100 100 100 100 90 75 88 90 91 87 96
53 51 50 65 70 68 76 77 61 48 41 56 51 57 79 48 46 41 24 16 15 16 17 16 57 100 100 100 100 100 88 76 75 96 100 100 97 100 100 100 99 87 80
54 54 52 67 68 76 87 86 58 54 72 50 38 69 73 43 44 33 32 19 19 17 17 19 18 100 100 100 100 100 96 84 73 75 100 100 98 100 98 82 67 78 72
73 56 54 64 69 73 88 86 68 91 97 72 45 41 45 53 36 40 39 23 30 24 17 16 22 95 100 100 100 100 100 89 81 72 75 93 94 99 89 84 83 85 76
68 63 56 53 54 70 70 69 86 100 98 55 56 66 61 45 38 44 51 28 34 26 20 17 17 50 100 100 100 100 100 100 87 80 68 68 87 96 98 92 96 82 63
61 72 54 64 45 44 80 74 70 71 76 44 81 100 88 54 50 59 53 35 49 30 22 20 18 28 35 97 100 100 100 100 92 76 79 99 86 69 77 94 88 70 59
51 64 91 97 87 61 88 100 80 61 38 41 59 92 100 76 75 77 45 47 70 36 24 22 21 28 37 48 100 91 100 91 89 81 86 95 80 81 80 75 63 66 59
47 54 98 98 84 100 100 100 99 89 48 46 68 52 100 68 94 83 40 69 65 46 34 27 25 28 40 55 100 100 100 95 75 74 92 78 65 54 59 65 67 56 53
62 59 68 87 100 100 97 100 100 99 59 39 59 63 91 100 84 65 40 61 80 49 34 25 30 51 46 56 72 100 100 100 100 86 84 71 72 71 84 69 66 66 67
44 84 82 68 73 91 90 100 94 88 53 42 90 100 100 89 45 46 73 81 62 44 32 26 39 87 80 47 58 80 100 100 100 93 93 100 100 84 71 60 60 72 49
37 38 55 94 97 100 100 100 100 77 39 95 100 71 51 50 48 53 82 55 42 54 30 31 52 100 100 83 88 94 100 100 99 100 100 100 90 62 50 59 43 51 62
51 38 43 51 100 100 100 100 73 38 75 100 100 86 50 53 46 64 55 39 46 64 45 65 79 100 100 99 100 96 100 97 100 100 100 100 100 56 69 62 62 60 58
65 49 38 51 90 100 100 100 87 89 100 100 92 84 69 56 65 46 37 57 90 100 45 43 85 100 98 100 100 100 97 99 100 100 100 100 94 70 71 61 66 66 72
57 51 46 39 64 100 100 100 100 100 100 100 86 69 67 55 42 41 55 83 95 100 54 53 92 100 99 98 100 100 100 100 85 100 100 98 75 83 81 78 94 64 84
46 50 48 42 49 87 100 100 100 100 92 100 86 65 58 52 53 49 84 88 88 97 62 63 78 99 97 81 100 98 81 100 94 100 100 92 76 88 67 76 86 62 68
40 54 73 50 48 85 93 100 100 100 95 90 81 67 60 64 63 52 75 66 85 92 63 51 76 98 99 100 97 86 60 75 88 100 100 98 79 93 64 72 81 93 90
42 64 95 64 66 97 100 100 100 100 100 66 71 61 68 70 66 58 74 69 68 66 63 45 67 100 84 95 100 90 96 82 100 100 100 99 98 80 87 84 100 92 100
47 65 77 78 98 84 100 100 100 100 100 100 98 74 65 80 100 63 87 70 64 79 66 73 62 77 55 53 86 100 100 90 94 100 100 100 78 80 100 87 98 100 100
43 58 86 89 100 93 100 100 98 100 100 100 100 96 90 97 90 100 82 86 71 58 65 100 80 80 57 52 50 95 96 95 100 91 100 100 93 83 98 100 100 100 100
51 79 100 100 100 100 100 100 85 96 100 100 100 100 100 95 100 99 76 74 83 62 74 89 95 93 73 60 43 52 80 69 100 100 100 96 89 97 97 100 100 100 100

GFSSE_250_rhum_138.txt.gz
RH
29 27 25 23 22 21 21 20 21 20 20 18 17 17 16 14 13 11 11 10 8 8 7 6 5 5 10 7 11 16 29 24 25 44 42 100 82 82 88 57 48 43 36
27 26 23 23 23 23 23 25 25 25 26 25 23 22 19 17 16 14 13 11 10 9 9 8 8 7 12 20 14 19 22 25 33 53 60 78 87 100 97 99 68 47 43
25 23 24 23 22 24 27 28 29 31 33 30 28 24 22 20 17 15 16 15 14 11 10 10 9 12 8 7 10 11 14 14 38 56 58 75 67 66 68 72 94 79 51
23 23 25 28 28 31 34 33 34 38 36 36 29 28 24 21 20 17 15 15 16 16 13 11 11 10 8 8 9 9 10 15 38 74 73 79 43 28 41 83 74 87 83
28 41 46 42 39 33 33 33 44 44 44 39 35 31 26 26 24 20 19 17 17 20 16 15 13 12 10 9 8 8 8 16 40 84 99 100 61 48 57 83 88 93 100
52 64 56 44 37 34 34 42 52 51 43 41 38 32 29 28 28 28 25 20 20 21 21 18 19 15 18 12 10 9 13 69 37 59 97 100 100 100 97 82 79 70 84
78 87 57 45 38 36 45 55 58 52 49 45 42 37 34 29 29 29 26 22 25 26 23 21 20 18 16 13 10 10 18 100 93 100 98 100 100 100 100 100 78 71 88
75 78 51 41 41 46 62 70 65 62 56 54 49 44 38 36 33 33 33 30 23 21 25 22 24 26 21 15 14 11 14 98 100 100 100 100 100 100 100 100 99 94 100
100 83 56 46 82 90 74 70 66 64 62 56 52 46 44 48 51 52 31 28 30 24 24 23 25 26 22 18 14 13 12 76 100 100 100 100 100 100 100 100 100 100 97
88 88 71 53 79 72 67 69 68 62 55 53 49 49 90 71 75 74 45 33 33 26 29 34 29 26 23 23 18 13 14 47 100 100 100 100 100 100 100 100 100 100 100
93 85 72 56 43 39 48 62 62 58 59 60 54 50 70 79 99 94 64 50 34 28 34 41 32 29 32 24 19 16 15 41 100 100 100 100 100 100 100 100 100 100 100
73 81 76 62 50 45 44 47 48 51 60 62 58 55 54 79 100 97 79 67 48 36 37 45 32 32 25 24 24 20 18 24 100 100 100 100 100 100 96 85 100 100 100
41 46 42 52 58 55 52 50 51 55 59 68 73 71 73 96 100 97 94 78 60 47 53 46 32 29 32 29 24 20 20 21 44 100 100 100 100 100 100 98 100 100 99
60 53 56 45 38 39 40 39 37 36 42 44 56 70 100 100 100 98 92 86 60 44 52 49 31 34 60 42 25 21 26 30 32 58 96 100 100 100 96 72 80 83 53
79 79 68 74 66 62 54 58 59 50 42 38 38 42 67 87 92 100 98 83 73 50 57 56 32 46 66 49 34 24 40 79 64 100 100 100 100 100 100 80 59 50 55
70 82 79 78 76 81 82 76 75 77 62 50 50 52 44 63 92 100 98 97 72 47 60 52 31 64 70 56 41 37 66 87 100 100 98 100 96 100 100 100 86 77 68
83 88 96 95 100 100 100 100 96 86 83 65 61 59 49 50 81 100 100 100 88 64 67 43 32 67 68 76 52 46 78 95 87 88 58 66 89 87 73 84 93 80 81
44 52 66 73 76 77 97 100 100 100 89 76 70 68 59 48 58 100 100 100 97 80 66 42 37 66 64 80 65 48 79 97 100 85 74 94 98 97 100 100 100 94 76
38 34 36 41 51 56 55 64 89 98 100 89 74 76 58 56 50 91 100 100 100 93 60 37 39 57 68 100 67 58 66 92 100 96 94 100 100 100 100 100 90 93 83
41 42 43 40 34 38 40 38 48 70 82 79 78 66 60 57 85 100 100 100 100 98 61 34 49 77 93 100 88 64 61 83 100 97 75 100 100 100 99 100 100 93 86
34 28 26 23 24 27 27 28 40 70 63 55 64 65 50 83 80 79 100 100 94 97 61 32 58 100 91 100 100 49 54 70 86 96 70 100 97 100 98 100 100 100 89
22 20 17 16 17 18 24 22 23 51 73 74 77 73 82 89 100 78 74 95 89 91 51 40 72 100 100 100 100 70 52 61 79 100 80 94 93 99 96 85 100 100 100
21 20 17 15 15 14 19 21 22 37 60 88 100 100 98 91 99 99 100 92 82 87 73 54 78 94 100 100 100 77 72 50 90 96 93 87 90 92 96 80 97 100 100
20 19 17 15 14 15 16 18 22 27 46 83 99 100 98 93 88 88 100 100 100 96 84 69 90 88 84 72 75 84 92 64 63 81 100 100 100 89 79 97 100 100 100
20 22 19 16 14 15 19 24 36 98 61 69 84 100 100 100 100 78 94 100 100 100 80 66 78 78 86 61 82 90 88 79 64 60 85 94 100 100 88 100 100 100 100
17 18 19 17 15 17 25 40 37 58 88 96 94 100 100 100 78 85 95 100 100 79 82 87 70 84 80 63 100 100 77 77 67 80 74 78 90 100 84 96 100 100 100

GFSSE_250_rhum_141.txt.gz
RH
37 33 28 28 27 25 24 23 21 21 20 21 22 22 22 21 19 18 17 15 13 12 9 9 8 7 7 6 5 5 6 10 12 18 33 37 44 78 100 100 98 97 78
32 28 27 28 28 25 23 24 22 21 23 26 27 30 31 29 27 23 20 18 16 14 12 10 9 8 8 7 6 6 5 8 11 23 41 57 48 65 72 100 100 91 81
29 27 27 27 25 27 25 24 23 27 31 32 34 38 38 36 31 27 23 20 18 16 15 13 11 10 10 9 8 13 10 9 14 18 51 83 89 87 71 100 100 100 95
25 26 25 27 27 32 34 33 37 36 33 32 39 42 41 37 33 27 25 22 20 17 16 15 14 14 13 15 10 9 10 7 10 20 48 83 100 100 84 82 100 100 100
22 24 26 33 47 47 46 46 43 36 32 39 50 43 37 38 33 32 28 25 22 20 20 20 15 16 16 14 14 9 9 8 8 9 16 56 100 100 100 98 99 100 100
30 32 36 41 57 62 58 50 43 38 38 52 56 48 41 37 41 36 30 30 27 21 21 21 18 18 14 13 13 11 14 13 9 8 12 33 76 100 100 100 100 100 100
49 48 59 76 64 69 61 49 46 42 53 63 58 54 54 50 48 41 34 38 41 25 23 21 22 25 18 14 14 12 12 11 11 12 13 98 100 100 100 100 100 100 100
72 66 62 86 91 78 55 48 45 58 73 65 60 58 56 49 47 43 54 54 52 39 27 25 25 30 20 18 17 16 14 11 10 13 52 58 100 100 100 100 100 100 100
78 96 78 76 90 68 59 50 50 54 59 55 60 62 58 58 55 48 60 64 79 59 39 29 27 30 27 21 22 20 17 13 12 16 83 86 99 100 100 100 100 100 100
56 69 77 88 79 75 65 55 57 57 47 47 57 57 56 55 54 50 48 49 71 75 50 42 33 31 32 26 21 20 17 15 13 14 93 100 100 100 100 100 100 100 100
35 44 43 64 93 84 67 64 57 48 40 40 48 48 47 52 60 55 53 54 69 63 58 52 48 39 36 31 23 24 21 19 16 15 39 100 100 100 100 100 100 98 97
47 41 43 35 40 53 60 64 72 61 50 48 49 49 53 57 54 53 57 75 89 79 55 58 54 47 40 37 29 29 25 19 19 19 96 100 100 100 100 100 100 100 100
47 61 50 55 51 53 55 47 38 43 49 52 52 50 44 47 50 52 58 72 73 94 73 62 61 55 42 42 38 38 29 19 18 22 85 100 100 100 100 100 100 100 97
50 55 64 62 68 56 57 64 64 49 48 42 40 48 46 42 42 50 50 48 58 98 59 63 72 53 44 42 43 42 30 21 20 28 50 100 100 100 100 100 100 100 100
61 67 62 62 66 69 77 59 60 73 72 70 64 55 62 55 46 54 57 48 46 77 64 73 78 66 49 41 44 44 33 29 26 43 54 99 100 100 100 100 100 100 99
55 56 62 66 74 70 81 83 69 54 52 61 75 80 73 70 64 53 56 48 48 66 70 75 79 66 52 38 50 43 34 30 40 54 64 78 91 100 100 100 100 100 95
56 61 58 63 70 84 100 100 100 99 83 71 68 65 86 89 76 57 48 40 50 55 83 84 67 72 54 33 45 48 38 36 48 78 93 77 88 99 100 100 100 100 100
56 52 48 55 57 59 71 76 95 100 97 86 85 77 76 86 79 65 52 53 54 51 96 93 85 86 50 35 53 54 48 47 48 77 77 82 62 72 88 99 100 100 85
44 41 40 42 42 47 52 73 81 98 98 92 81 77 68 61 64 65 64 66 59 59 85 86 94 88 54 38 82 72 49 58 52 62 57 62 83 92 96 98 85 92 100
40 44 50 48 52 60 59 55 58 70 87 89 80 56 52 58 55 66 68 85 69 67 85 100 96 87 68 44 97 70 59 74 47 62 66 52 64 84 100 97 100 100 96
85 68 51 43 42 32 24 27 38 43 58 64 59 45 73 54 61 98 92 67 85 78 80 100 80 71 93 62 98 52 66 64 45 49 64 60 59 77 87 100 100 100 100
72 60 49 43 36 31 26 21 20 21 27 28 32 41 54 68 85 100 100 100 97 97 100 98 74 72 96 73 100 82 90 83 64 47 51 67 57 79 87 100 98 100 99
68 61 59 52 45 34 29 22 19 19 18 18 21 25 72 60 84 100 100 100 98 100 100 99 70 59 92 100 100 100 97 99 84 59 57 67 63 60 92 91 92 100 91
58 56 52 47 39 31 26 19 16 14 15 16 17 19 26 41 74 100 100 96 100 100 99 100 73 56 81 100 100 100 100 88 97 68 61 86 80 49 65 86 94 100 100
53 48 42 37 34 26 23 18 14 13 13 20 37 26 53 60 50 99 100 100 100 100 100 100 99 96 77 100 100 100 100 85 100 84 52 58 98 73 53 69 100 100 100
42 35 38 34 28 24 22 19 29 33 40 64 93 58 93 100 47 48 93 100 100 100 100 100 100 100 94 86 100 100 100 99 100 75 58 53 72 80 89 88 100 100 100